Lapse_Rate
6.1 6.0 5.9 5.6 5.8 5.8 5.6 5.5 5.4 5.5 5.9 5.9 6.0 6.1 6.1 5.9 5.9 6.0 6.0 6.0 5.9 6.0 6.0 6.1 5.8 5.9 5.5 5.9 5.5 5.2 5.0 5.0 5.0 4.9 4.9 5.0 5.2 5.4 5.8 6.0 6.2 6.0 6.1
6.3 6.1 5.9 5.8 5.9 5.9 5.9 5.4 5.4 5.6 5.6 6.0 5.9 6.0 5.9 5.8 5.9 5.7 5.9 5.6 5.5 5.7 5.6 5.6 5.8 6.0 5.7 5.2 5.0 4.8 5.0 5.0 4.9 5.1 5.1 5.2 5.5 5.8 6.1 6.2 6.1 6.2 6.3
6.5 6.4 6.1 6.0 5.9 5.7 5.9 5.7 5.6 5.7 5.8 5.8 5.8 5.9 5.9 5.9 6.0 6.0 6.0 6.0 5.9 5.6 5.3 5.4 5.5 5.7 5.1 5.1 4.9 5.1 5.2 5.1 5.2 5.3 5.5 5.8 5.9 6.0 6.1 6.0 6.2 6.4 6.4
6.7 6.5 6.2 6.1 6.0 5.9 6.0 6.0 5.5 5.6 5.8 5.8 6.1 6.1 5.9 5.7 5.8 5.9 6.0 5.9 5.7 5.6 5.2 5.0 5.2 5.2 5.3 5.2 5.2 5.1 5.2 5.3 5.5 5.6 5.8 5.9 5.9 5.9 6.0 6.1 6.1 6.1 6.4
6.7 6.5 6.3 6.2 6.1 6.0 6.1 6.1 5.8 5.6 5.8 5.6 5.7 6.0 6.1 5.7 5.8 5.9 5.9 5.9 5.9 5.9 5.6 5.4 5.1 5.3 5.3 5.3 5.3 5.6 5.7 5.6 5.7 5.6 5.8 6.1 6.2 6.2 6.1 5.9 5.8 5.8 5.6
6.7 6.5 6.4 6.5 6.4 6.2 6.1 6.2 6.3 6.0 5.7 5.4 5.6 5.9 5.8 6.2 6.2 6.0 5.8 5.7 5.7 5.6 5.5 5.5 5.6 5.5 5.6 5.5 5.7 5.6 5.7 5.8 5.9 6.1 6.4 6.3 6.0 5.6 5.6 5.8 5.9 6.3 6.5
7.0 6.8 6.6 6.5 6.5 6.2 6.2 6.4 6.6 6.5 6.4 6.0 6.1 6.0 6.1 6.1 6.0 6.0 5.9 5.8 5.7 5.6 5.6 5.8 5.9 5.9 5.7 5.6 5.4 5.4 5.5 5.6 5.9 6.1 6.1 5.7 5.6 5.8 5.9 6.1 6.1 6.2 6.5
7.3 7.1 6.9 6.7 6.7 6.4 6.5 6.5 6.5 6.5 6.5 6.4 6.3 6.4 6.4 6.2 6.3 6.1 6.0 6.1 6.1 6.0 6.0 5.9 6.0 6.0 5.8 5.8 5.9 5.8 5.8 5.7 5.8 5.5 5.4 5.6 5.7 5.9 6.0 6.2 6.4 6.7 6.9
7.4 7.5 7.2 7.0 6.9 6.8 6.8 6.7 6.7 6.6 6.6 6.5 6.4 6.4 6.4 6.4 6.3 6.3 6.2 6.1 6.0 6.1 6.3 6.5 6.4 6.4 6.4 6.2 5.9 5.9 5.9 5.8 5.8 5.8 5.8 5.9 6.0 6.1 6.3 6.5 6.6 6.7 6.7
7.6 7.5 7.5 7.3 7.2 7.1 7.1 6.9 6.7 6.8 6.6 6.6 6.6 6.5 6.4 6.5 6.4 6.3 6.3 6.4 6.4 6.4 6.4 6.3 6.3 6.4 6.4 6.2 6.1 6.0 5.9 6.0 6.0 5.9 5.9 6.1 6.3 6.3 6.4 6.5 6.6 6.5 6.4
7.7 7.6 7.6 7.6 7.4 7.3 7.2 7.1 7.0 6.8 6.7 6.8 6.7 6.7 6.6 6.5 6.3 6.3 6.4 6.4 6.5 6.5 6.5 6.4 6.3 6.4 6.3 6.2 6.1 6.0 6.0 5.9 5.9 6.1 6.2 6.1 6.2 6.3 6.5 6.6 6.7 6.7 6.6
7.9 7.7 7.7 7.6 7.6 7.6 7.4 7.2 7.1 7.0 6.9 6.9 6.9 6.9 7.0 6.8 6.8 6.8 6.8 6.6 6.6 6.4 6.4 6.3 6.3 6.2 6.1 6.0 5.9 5.9 6.0 6.1 6.2 6.1 6.2 6.1 6.1 6.3 6.4 6.2 6.4 6.3 6.3
7.8 7.8 7.6 7.5 7.5 7.5 7.5 7.4 7.3 7.2 7.1 7.1 7.1 7.1 7.0 7.0 7.0 6.9 6.7 6.5 6.5 6.5 6.5 6.2 6.1 6.0 6.0 6.0 6.0 6.0 5.9 5.9 6.0 6.0 6.0 6.1 6.2 6.2 6.3 6.3 6.1 5.7 5.8
7.8 7.9 7.9 7.6 7.5 7.6 7.5 7.4 7.4 7.3 7.3 7.2 7.1 7.1 7.0 7.0 6.9 6.8 6.7 6.7 6.6 6.4 6.2 6.0 5.9 5.9 5.9 5.9 5.9 6.0 6.0 6.0 6.1 6.2 6.1 6.2 6.2 6.1 6.0 5.9 5.9 5.5 5.4
7.8 8.0 8.1 7.9 7.7 7.6 7.5 7.4 7.4 7.3 7.2 7.2 7.1 7.0 7.0 7.0 7.0 6.8 6.7 6.7 6.5 6.2 6.0 6.0 6.0 6.1 6.1 6.0 6.0 6.0 5.9 6.0 6.0 6.0 6.0 6.0 6.0 5.9 5.6 5.5 5.6 5.4 5.0
7.9 8.0 8.3 8.2 8.0 8.1 7.8 7.6 7.5 7.3 7.2 7.1 7.1 7.1 7.1 7.0 6.8 6.6 6.5 6.4 6.3 6.1 6.1 6.2 6.1 6.1 6.0 5.9 5.8 5.7 5.8 5.9 5.9 5.8 5.7 5.6 5.5 5.3 5.6 5.2 5.0 4.9 5.0
8.2 8.1 8.1 8.1 8.2 8.0 8.0 7.9 7.6 7.4 7.2 7.2 7.0 7.0 7.0 7.0 7.0 6.7 6.6 6.4 6.2 6.2 6.3 6.2 6.1 6.0 5.8 5.7 5.5 5.7 5.9 5.9 5.7 5.3 5.4 5.6 5.7 5.6 5.2 4.9 5.2 5.2 5.2
8.3 8.3 8.1 8.0 8.0 8.0 7.9 7.8 7.7 7.5 7.4 7.3 7.2 7.1 7.0 7.0 7.0 6.9 6.7 6.5 6.4 6.4 6.3 6.1 5.9 5.8 5.7 5.7 5.9 5.9 5.9 5.7 5.4 5.3 5.7 5.3 5.0 4.8 5.0 5.1 5.1 5.1 5.2
8.3 8.3 8.3 8.2 7.9 8.1 7.9 7.9 7.7 7.7 7.6 7.4 7.3 7.2 7.2 7.2 7.0 6.9 6.9 6.8 6.6 6.4 6.3 6.1 6.0 5.8 6.0 5.9 5.9 6.0 6.0 5.4 5.3 5.7 5.8 5.5 5.0 4.9 5.2 5.0 5.0 5.2 5.2
8.3 8.4 8.3 8.1 8.2 8.0 8.3 8.2 8.1 8.0 8.0 7.9 7.6 7.6 7.5 7.3 7.2 7.2 7.1 6.9 6.7 6.5 6.2 5.8 5.9 6.0 6.1 5.9 5.9 5.9 5.7 5.6 5.6 5.5 4.8 4.3 4.9 5.4 5.1 5.2 5.2 5.5 5.9
8.4 8.4 8.3 8.0 7.6 7.9 7.9 8.3 8.3 8.2 8.1 8.1 8.2 8.1 7.7 7.4 7.6 7.2 7.1 6.9 6.7 6.3 5.9 5.8 5.7 6.1 5.8 5.8 6.0 6.1 6.0 5.8 5.6 5.2 4.4 5.0 5.3 5.2 5.2 5.3 5.4 6.2 5.8
8.2 8.2 8.3 8.3 8.2 7.7 7.8 7.5 7.9 7.8 7.4 7.2 7.0 8.1 7.6 7.0 7.0 7.3 7.3 6.9 6.5 6.5 6.5 6.3 6.3 6.2 6.0 6.1 6.2 6.1 5.9 5.6 4.7 4.4 5.1 5.5 5.3 5.2 5.3 5.6 6.2 5.8 5.8
8.0 7.7 7.9 8.4 8.3 8.2 7.7 7.2 6.9 7.0 6.9 6.8 6.6 6.8 6.8 6.7 7.0 7.1 6.9 7.1 7.4 7.4 7.2 6.9 6.6 6.3 6.2 6.1 5.7 5.5 5.2 4.6 4.7 5.2 5.3 5.1 5.2 5.3 5.7 6.1 6.0 6.0 5.9
7.7 7.8 7.5 7.4 8.0 7.9 7.6 7.3 6.9 6.9 6.8 6.8 6.8 6.9 6.8 6.4 6.6 7.1 7.1 7.5 7.5 7.1 6.9 6.9 6.6 6.4 6.1 5.9 5.7 5.2 5.5 4.5 5.1 5.2 5.2 5.2 5.5 5.9 6.1 6.1 6.1 5.9 6.3
7.9 7.7 7.6 7.5 7.4 8.0 8.1 7.8 7.2 6.8 6.5 6.8 6.9 6.7 6.5 6.7 6.8 6.0 6.5 6.9 7.0 6.8 6.7 6.4 6.1 6.0 5.8 5.7 5.0 5.0 4.7 5.2 5.2 5.3 5.3 5.5 5.9 6.3 6.3 6.2 5.9 6.5 6.7
8.0 8.1 7.3 7.1 7.1 7.6 8.0 8.0 7.6 6.9 6.7 6.7 6.6 6.6 6.7 6.8 6.9 7.2 6.6 6.3 6.1 5.4 5.8 5.7 5.7 5.4 5.5 5.4 4.1 4.9 4.9 5.1 5.2 5.4 5.5 6.1 6.4 6.4 6.2 6.3 6.6 6.8 6.8
Wind_Speed
4 4 2 5 4 6 6 5 5 3 6 8 9 8 8 8 10 9 9 10 11 10 8 9 12 11 8 8 7 5 4 3 7 3 5 7 6 6 10 10 10 17 17
5 6 3 5 5 7 7 5 6 7 6 6 8 8 7 9 8 10 11 10 11 12 9 10 10 8 10 9 7 6 6 4 6 9 5 5 3 4 9 5 10 16 19
6 7 3 5 6 5 6 8 5 6 7 6 6 6 7 6 7 10 9 9 8 9 10 10 10 11 10 7 7 6 4 4 4 7 6 2 2 4 3 5 6 6 9
7 8 4 5 7 5 5 7 7 7 6 7 4 5 8 6 6 9 9 9 9 9 9 10 10 8 11 10 7 6 3 6 5 6 6 5 3 5 4 4 2 2 2
8 9 5 5 5 5 5 5 11 9 6 6 5 2 8 10 6 10 9 8 9 10 9 9 9 8 9 7 6 4 4 5 5 5 5 4 4 3 5 4 5 5 6
7 10 8 6 5 5 6 5 6 5 7 7 7 8 7 5 6 12 11 7 7 8 9 8 6 8 6 9 9 6 4 7 4 4 4 5 5 5 5 5 4 4 4
8 10 10 7 7 6 6 5 4 5 5 9 9 8 6 6 11 10 12 8 8 7 9 11 10 8 8 8 8 11 8 10 5 5 5 4 6 7 6 5 5 3 3
10 11 11 10 9 7 7 6 5 4 5 6 8 7 6 4 10 10 10 7 6 7 7 7 8 7 6 7 6 5 4 5 5 4 2 4 5 4 2 2 3 2 3
11 12 12 12 11 8 7 8 6 4 4 4 6 8 7 4 6 9 5 6 6 5 7 6 7 7 7 6 7 7 5 2 3 9 9 7 7 8 7 3 3 2 3
12 12 12 12 11 10 7 8 7 5 5 4 6 7 9 6 1 4 5 2 6 4 6 6 8 8 9 8 2 6 6 5 4 3 2 1 3 5 5 5 2 0 1
12 12 12 10 10 9 8 6 6 5 6 5 6 6 7 7 6 5 5 2 4 5 5 4 4 10 11 9 7 4 3 3 3 3 2 3 4 6 3 5 6 2 1
13 13 12 10 10 9 10 8 7 6 5 5 6 5 5 7 9 5 6 6 7 2 7 5 6 10 10 8 7 6 8 5 3 2 2 2 2 6 3 7 7 8 10
12 11 11 12 9 10 10 9 7 6 5 6 5 5 5 7 5 11 10 8 6 3 3 9 14 10 9 6 8 5 3 1 1 1 1 4 7 7 11 6 11 14 13
11 10 11 12 9 11 9 8 8 8 7 8 7 7 5 7 7 5 5 4 4 7 9 8 8 8 7 4 5 4 3 3 1 2 3 6 5 7 5 3 3 4 3
11 11 12 10 10 10 10 10 9 9 10 7 7 7 6 8 8 11 10 7 5 5 8 5 4 4 4 4 3 4 4 3 2 5 7 6 6 4 4 4 3 2 2
12 10 11 11 10 9 9 8 4 3 15 8 5 5 7 9 18 19 16 14 13 12 2 4 4 5 6 6 7 6 4 7 6 8 6 5 4 4 3 3 3 2 2
12 12 11 11 11 10 10 9 9 3 11 5 9 5 3 10 21 21 19 16 15 10 5 5 4 6 6 5 8 9 9 7 7 7 6 4 3 1 2 2 4 5 4
14 15 11 12 11 12 10 11 9 9 7 5 3 1 6 10 13 17 17 14 5 3 5 4 5 5 5 11 10 9 8 7 7 6 4 3 4 3 4 4 4 4 5
15 12 13 12 12 13 11 11 11 10 11 9 5 3 8 11 11 7 12 9 9 7 6 5 4 8 10 10 9 9 8 7 5 3 2 3 5 3 4 4 5 6 4
15 17 15 11 12 11 12 12 12 12 10 12 10 9 7 5 5 6 4 4 6 7 8 5 9 10 10 10 9 8 8 5 4 3 4 4 4 4 3 4 4 4 4
12 12 13 10 11 13 11 13 12 12 12 11 12 13 18 14 11 10 8 7 5 4 7 11 11 10 9 9 8 7 6 6 5 5 4 3 5 3 3 3 4 4 4
10 13 15 15 12 13 9 10 11 13 13 12 12 12 18 12 11 10 10 7 4 8 9 11 11 10 9 9 8 8 7 5 5 4 5 3 4 3 1 3 2 3 4
10 9 12 13 12 10 13 10 12 9 10 8 10 10 13 10 10 9 9 11 11 11 10 12 12 10 13 15 16 10 6 6 4 5 4 2 4 3 2 1 3 4 3
9 10 10 11 11 11 9 10 9 9 7 10 10 12 11 6 12 15 13 12 12 12 11 12 13 13 15 17 17 16 18 11 8 5 5 3 3 2 4 4 4 4 3
5 4 7 6 9 10 10 7 3 5 10 10 9 10 10 14 15 13 13 12 11 12 13 16 17 20 19 19 15 20 20 14 9 6 6 4 5 8 6 4 3 2 4
8 8 5 5 6 5 4 4 5 4 9 10 9 11 12 12 12 12 12 12 12 12 15 16 18 23 23 20 21 21 16 12 10 7 5 5 5 6 4 4 6 3 4
Wind_Direction
163 103 153 111 105 84 87 95 102 59 109 101 105 103 119 114 128 118 111 114 113 112 112 108 113 120 120 111 114 113 135 121 125 130 127 163 177 152 169 201 186 175 196
160 126 151 111 89 95 101 99 96 80 63 78 107 112 111 128 140 132 135 137 134 130 132 127 122 120 123 123 128 155 191 189 141 141 140 154 138 128 167 178 184 189 195
162 122 157 116 96 96 116 118 125 95 87 90 88 116 119 130 145 134 127 129 126 126 131 134 130 129 138 144 154 183 201 155 151 124 130 119 105 135 172 213 212 219 196
151 136 161 127 134 138 142 137 132 113 102 93 112 101 132 148 137 127 131 128 131 136 137 125 129 147 156 176 186 202 204 138 139 136 147 158 161 179 176 187 223 235 189
157 137 161 139 151 147 133 109 133 131 137 134 119 117 95 120 145 134 126 139 132 134 137 129 150 175 168 188 199 207 211 148 145 159 155 144 159 157 196 202 196 208 231
158 143 161 171 167 133 109 114 111 117 132 129 88 80 70 74 65 117 122 127 111 118 137 143 139 125 146 180 187 136 120 147 171 148 158 165 191 179 188 207 214 209 245
165 153 166 183 155 143 142 134 109 111 99 107 95 87 72 60 45 77 112 111 118 130 143 145 157 156 147 122 104 100 94 99 109 108 147 175 176 186 187 196 217 224 246
184 162 170 178 162 170 153 132 109 93 93 108 115 107 95 67 47 46 108 113 120 135 140 121 121 130 123 133 134 127 103 74 45 59 76 59 53 26 25 187 195 270 292
189 168 173 181 163 173 163 142 139 136 125 127 127 125 115 109 62 57 78 103 107 116 90 93 134 122 123 81 154 156 152 127 86 68 76 86 72 54 50 27 334 317 300
188 177 171 182 166 171 161 151 152 163 158 179 139 138 141 139 145 87 44 106 120 106 104 88 51 129 104 66 183 152 153 182 161 152 193 148 189 180 171 163 134 307 324
190 179 168 172 162 163 150 152 156 175 173 210 152 146 142 146 175 188 103 356 148 148 139 138 113 111 103 73 58 74 93 309 136 156 218 222 196 201 197 172 163 134 16
194 180 167 155 169 162 154 160 166 185 175 194 151 152 150 148 157 197 115 69 17 192 158 158 137 136 126 100 85 97 61 39 29 341 331 324 329 84 90 113 117 62 26
196 176 159 153 171 157 159 163 170 188 202 186 181 179 182 159 162 162 157 120 35 79 32 123 124 123 121 110 129 114 104 136 219 248 315 47 54 57 48 44 35 23 6
194 168 156 157 167 158 168 172 185 185 208 186 200 195 196 168 160 157 157 138 115 100 104 115 150 160 172 153 139 175 192 217 248 45 43 82 56 46 48 38 37 7 343
185 169 162 165 169 166 179 184 196 187 198 197 202 193 195 177 177 167 165 169 164 171 136 138 153 161 180 198 212 170 184 179 113 82 65 55 54 43 25 14 352 337 266
183 175 173 170 175 177 184 189 138 231 180 122 103 199 197 178 156 164 165 164 166 170 155 176 181 195 199 196 197 186 124 94 74 86 83 72 58 33 3 320 296 269 342
189 181 180 180 175 189 185 201 188 65 80 97 135 94 138 167 165 168 167 165 168 142 199 221 207 201 208 205 93 95 90 81 83 78 76 64 59 359 291 319 18 24 16
187 179 186 191 183 189 190 196 196 192 185 183 301 110 124 131 158 149 141 122 134 227 199 223 222 205 83 107 106 106 100 90 86 83 76 24 317 339 36 28 24 19 9
186 188 190 187 203 185 196 193 207 198 192 190 121 98 82 81 90 98 157 164 172 186 205 232 230 103 105 102 103 105 110 112 107 133 111 115 81 18 28 24 33 38 22
188 192 186 199 193 211 193 199 198 210 193 190 176 167 151 131 156 165 203 204 187 192 204 152 102 105 104 106 106 106 106 93 110 79 66 54 53 72 31 36 17 4 8
186 183 185 199 221 201 216 200 204 203 211 193 192 172 171 176 178 183 187 199 218 237 122 118 111 100 103 103 110 114 108 108 102 95 127 113 86 65 17 35 24 17 354
199 183 188 203 206 230 211 230 204 206 206 210 188 170 169 183 185 180 184 190 180 124 114 112 109 113 117 125 126 113 113 119 110 107 102 100 112 93 46 64 359 18 19
204 202 183 201 209 201 215 246 227 222 209 191 146 148 169 188 182 165 127 125 115 114 117 114 117 120 107 104 110 114 114 95 79 93 117 168 114 71 13 63 46 20 342
201 209 201 188 200 210 223 214 257 207 152 132 145 160 169 175 128 128 125 120 122 121 122 116 115 121 119 113 109 102 95 96 116 84 50 92 83 67 53 55 27 348 331
256 269 192 186 181 197 207 213 176 139 140 141 147 153 137 134 130 130 128 126 122 114 114 121 128 129 123 118 110 101 103 106 101 79 44 54 67 68 60 31 352 25 33
229 254 250 176 134 152 165 159 141 127 132 143 141 129 128 130 128 122 117 119 121 125 125 123 127 120 111 109 108 110 111 111 106 92 74 16 74 76 42 327 43 27 24